TITAN 3C TRANSTAGE DEB, 38694

Orbit data source: Space-Track

TITAN 3C TRANSTAGE DEB, 38694 is space debris in GEO originally from a launch on Thu, 26 Sep 1968 UTC launched from the Air Force Eastern Test Range (AFETR). Debris objects in space refer to the collection of defunct objects orbiting the Earth. Examples of debris include non-operational satellites, rocket bodies, and fragments generated from explosions, collisions, or faulty payload assembly.

Loading next visibility...
Identifier
38694, 1968-081U
Orbit
GEO
Country
Flag of USUS
Related business
Manufacturer
Unknown
Mission
Spacecraft
Bus & Motor
Unknown
Mass
Unknown
Launch date (UTC)
1968-09-26 (57 years ago)
Launch vehicle
Unknown
Launch site
Air Force Eastern Test Range (AFETR)
Object type
Payload
Rocket body
Debris
Shape & HBR
Unknown shape, 1.1 m
Radar Cross Section
Medium (>0.1 m² and <1 m²)

Expand to show TLE details & history
Last TLE update: 1 week ago

TLE from 1 week ago
0 TITAN 3C TRANSTAGE DEB
1 38694U 68081U   25285.70515641 -.00000034  00000-0  00000-0 0  9992
2 38694   1.2465  66.5686 0086195  68.2851 292.9982  1.03492090 41505
Epoch: 2025-10-12T16:55Z
TLE epoch observation values (Epoch: 2025-10-12T16:55:25.513Z)
Latitude
-0°
Longitude
151.54516°
Altitude
34,771.913 km
Speed
3.117 km/s
True Right ascension
04h 27m 40s
True Declination
0° 00' 00"
Sunlit
Object was in daylight at epoch
Visualization orbit readout
Latitude
Unknown
Longitude
Unknown
Altitude
Unknown
Speed
Unknown
Apparent Right ascension
Unknown
Apparent Declination
Unknown
Sunlit
N/A
Visualization observer readout
Local Sidereal Time
01:45:51
Azimuth
Unknown
Elevation
Unknown
Doppler factor
Unknown
Orbital elements
Apogee altitude
35,264.278 km
Perigee altitude
34,552.54 km
Semi-major axis
41,286.546 km
Eccentricity
0.00862
Inclination
1.2465°
RAAN
66.5686°
Arg. of periapsis
68.2851°
True anomaly
292.08518°
Mean anomaly
292.9982°
Eccentric anomaly
292.54207°
Mean motion
0.25872 °/min
Orbital period
1,391.46 mins
BSTAR
0
Loading maneuver chart data...
Computing Atmospheric mass density...

Documentation

Showing up to 5 results
|